Vorticity
15 17 7 9 12 15 12 15 21 21 21 13 9 3 11 10 5 10 13 11 11 10 11 10 6 6 7 6 6 4 4 5 6 5 5 4 4 4 4 4 5 5 4 5
5 11 17 11 6 11 12 14 11 12 14 18 22 16 5 10 11 8 8 11 13 8 10 11 9 8 11 10 8 8 6 6 6 6 5 4 4 5 5 5 4 4 4 4
7 5 4 11 18 13 12 14 14 13 9 13 13 16 16 21 18 12 11 10 12 12 14 11 9 11 8 5 5 10 11 6 5 7 7 6 5 6 6 6 6 6 6 6
9 7 4 8 6 11 16 11 14 13 15 11 8 19 14 13 15 15 12 10 9 9 10 11 16 13 8 10 13 16 5 -2 3 11 10 8 7 7 7 6 7 7 7 7
7 5 7 8 8 6 3 8 18 11 15 14 13 14 8 12 19 14 17 15 13 9 10 10 9 12 13 10 6 7 11 15 15 12 7 5 6 6 7 8 8 9 8 10
5 10 9 3 7 6 8 8 7 6 15 18 10 18 15 8 10 21 14 13 16 15 20 17 11 11 10 12 13 10 8 8 8 9 9 10 10 11 10 10 6 9 10 10
12 10 7 8 5 5 3 10 8 8 6 8 15 16 13 15 10 12 22 16 10 17 13 17 19 15 13 8 7 9 10 10 9 8 7 8 9 9 8 6 8 6 -0 5
10 14 10 11 9 5 7 5 7 8 6 6 7 12 14 17 17 13 18 17 21 10 16 12 16 15 9 9 8 6 5 7 6 7 7 11 10 10 9 6 5 5 11 6
11 9 12 12 10 9 10 10 6 7 7 6 9 4 6 11 16 16 12 13 17 14 18 11 15 17 18 14 9 9 11 9 8 18 11 7 7 9 10 7 2 11 5 3
7 8 5 6 7 10 9 12 12 10 10 3 3 7 8 9 10 12 13 16 12 14 13 13 9 7 11 12 13 13 16 15 14 17 14 8 12 10 10 5 4 -1 3 8
13 10 6 7 8 5 8 12 16 17 9 5 4 6 4 6 7 11 13 22 15 15 5 17 20 11 12 11 11 12 10 6 2 -0 3 11 11 10 5 4 2 6 8 11
15 11 16 11 12 9 8 7 7 8 10 10 7 8 10 9 4 4 8 5 2 7 19 11 7 15 22 19 15 10 10 12 13 16 18 21 23 24 25 24 22 18 16 16
23 24 23 22 18 12 11 12 15 21 17 15 12 13 14 4 3 3 4 9 10 11 7 4 13 14 10 11 13 16 16 16 17 17 14 11 9 10 12 12 13 12 12 12
41 28 24 8 32 30 18 31 22 14 9 12 10 11 3 8 10 12 7 6 6 8 9 11 13 6 2 5 11 13 12 10 9 11 11 12 13 13 13 12 11 12 12 8
45 39 14 -5 10 7 12 7 3 4 9 5 3 9 10 9 7 3 0 -1 3 8 6 8 9 6 9 12 13 11 9 7 7 6 7 8 8 8 9 10 11 11 11 11
34 40 69 7 9 4 3 6 9 7 -1 2 9 3 -4 -3 0 8 14 11 10 8 8 7 7 10 14 11 8 9 15 16 18 13 11 10 9 9 11 12 11 9 10 11
16 16 18 35 60 36 2 8 13 13 9 9 12 14 13 12 10 9 6 7 8 9 6 10 9 6 4 9 12 11 9 10 10 14 18 16 15 12 9 9 13 15 13 12
20 9 8 0 2 10 21 41 43 36 28 22 18 13 12 8 11 14 11 12 10 7 5 8 9 9 7 5 7 9 9 11 9 8 9 15 17 18 14 11 10 12 13 11
24 42 27 20 26 23 19 16 11 5 11 17 22 25 24 23 15 22 16 16 13 9 7 7 5 8 10 7 4 5 6 8 14 13 8 10 14 16 16 13 11 10 10 11
12 10 18 14 18 17 13 12 14 10 21 11 6 4 9 12 16 10 19 20 15 14 10 12 11 9 8 8 7 6 7 5 5 12 14 7 13 13 14 11 12 13 11 11
6 8 8 8 10 12 20 29 32 7 13 22 33 22 12 11 9 10 8 6 21 18 16 12 10 7 11 11 7 8 7 7 6 6 11 12 7 13 13 13 14 14 12 11
10 11 7 8 9 6 14 9 6 19 28 15 12 11 11 15 18 28 17 15 3 14 16 14 6 6 11 13 8 8 7 8 6 7 9 13 10 10 13 12 12 11 11 13
12 14 14 11 9 5 0 8 6 7 9 8 10 12 11 13 16 16 22 30 22 4 7 14 15 10 16 14 7 8 13 10 7 7 8 9 12 12 13 12 12 11 11 13
9 7 7 7 14 21 12 6 0 5 6 8 9 12 12 14 14 16 20 20 39 53 -1 2 6 13 10 19 13 10 13 10 8 7 6 8 8 14 13 13 13 11 12 11
5 6 7 7 10 14 13 21 25 17 7 6 9 11 11 10 17 19 20 29 33 47 38 51 6 -0 -2 8 9 17 13 10 10 7 8 6 10 13 13 12 13 12 12 9
7 8 7 8 8 15 11 12 13 16 30 14 5 7 11 9 15 19 22 18 13 11 14 22 33 36 10 3 1 2 12 15 10 11 11 7 8 11 13 12 14 13 11 11
Height
5594 5594 5594 5593 5594 5595 5595 5597 5599 5600 5602 5604 5608 5613 5614 5618 5624 5629 5633 5637 5641 5646 5649 5654 5660 5666 5672 5677 5681 5686 5691 5695 5700 5704 5708 5712 5716 5720 5724 5728 5731 5735 5738 5742
5589 5587 5587 5586 5586 5586 5587 5587 5589 5590 5591 5593 5595 5602 5603 5606 5613 5614 5617 5623 5627 5630 5635 5641 5646 5652 5657 5662 5668 5673 5678 5682 5687 5692 5695 5700 5704 5707 5711 5715 5719 5723 5726 5730
5581 5580 5579 5579 5578 5578 5578 5578 5578 5580 5580 5582 5585 5590 5592 5594 5597 5601 5604 5607 5611 5617 5622 5627 5632 5636 5642 5647 5653 5658 5664 5669 5673 5677 5682 5686 5690 5694 5698 5703 5706 5710 5714 5717
5573 5572 5571 5571 5570 5570 5569 5569 5569 5569 5570 5572 5575 5577 5584 5582 5584 5587 5589 5593 5597 5602 5608 5612 5617 5623 5627 5632 5638 5643 5649 5654 5659 5664 5668 5672 5676 5681 5685 5689 5693 5697 5701 5704
5565 5564 5563 5562 5562 5562 5562 5561 5560 5561 5561 5562 5565 5564 5572 5572 5572 5574 5576 5581 5584 5589 5593 5597 5601 5605 5611 5618 5623 5629 5634 5639 5644 5650 5655 5659 5663 5668 5672 5676 5680 5684 5688 5691
5554 5554 5554 5554 5553 5553 5553 5553 5552 5552 5552 5553 5554 5554 5560 5559 5561 5562 5565 5568 5572 5576 5579 5582 5586 5593 5599 5605 5608 5614 5619 5624 5629 5634 5639 5644 5648 5653 5658 5662 5665 5669 5674 5678
5544 5544 5544 5544 5544 5543 5543 5543 5543 5543 5543 5544 5544 5545 5547 5548 5550 5553 5554 5557 5560 5563 5566 5569 5574 5579 5583 5588 5594 5600 5605 5610 5615 5620 5625 5629 5634 5638 5643 5647 5651 5655 5658 5662
5535 5536 5534 5533 5533 5533 5533 5533 5534 5533 5534 5536 5535 5535 5536 5538 5540 5541 5544 5546 5548 5551 5554 5557 5560 5563 5568 5575 5579 5584 5590 5595 5599 5605 5609 5614 5618 5623 5628 5632 5636 5640 5643 5647
5524 5524 5523 5522 5521 5522 5522 5523 5523 5523 5524 5525 5526 5527 5527 5529 5530 5531 5533 5535 5537 5540 5544 5546 5550 5553 5557 5561 5565 5570 5574 5580 5584 5589 5595 5599 5604 5609 5613 5617 5622 5625 5629 5631
5512 5510 5512 5509 5509 5510 5510 5511 5512 5512 5512 5515 5516 5517 5517 5519 5520 5521 5523 5525 5527 5530 5533 5535 5539 5542 5546 5550 5554 5558 5563 5568 5572 5576 5581 5586 5591 5595 5598 5602 5606 5610 5614 5617
5496 5494 5496 5495 5496 5496 5497 5497 5499 5499 5501 5503 5506 5507 5508 5509 5509 5511 5513 5515 5517 5520 5523 5525 5528 5532 5535 5538 5542 5545 5550 5554 5558 5562 5566 5571 5576 5579 5583 5586 5590 5594 5597 5601
5480 5475 5475 5479 5480 5481 5483 5484 5485 5485 5489 5491 5493 5495 5497 5498 5499 5501 5503 5506 5508 5510 5512 5515 5518 5521 5524 5528 5531 5534 5538 5541 5545 5548 5552 5556 5561 5564 5568 5571 5575 5578 5582 5586
5462 5458 5457 5459 5464 5467 5470 5472 5472 5472 5472 5476 5481 5483 5483 5484 5487 5489 5493 5496 5499 5501 5503 5506 5508 5511 5513 5516 5519 5523 5526 5530 5534 5538 5541 5544 5547 5550 5554 5557 5561 5565 5568 5571
5443 5443 5444 5446 5450 5453 5456 5455 5456 5457 5461 5465 5466 5469 5470 5474 5478 5481 5484 5487 5490 5493 5495 5497 5499 5501 5504 5506 5509 5512 5515 5518 5522 5525 5528 5531 5535 5538 5541 5545 5548 5551 5554 5557
5432 5433 5433 5436 5439 5441 5442 5444 5446 5448 5451 5452 5455 5456 5460 5463 5466 5469 5471 5475 5478 5481 5484 5486 5489 5491 5494 5496 5499 5501 5504 5507 5510 5512 5515 5518 5522 5525 5528 5531 5534 5537 5539 5542
5425 5422 5423 5427 5429 5432 5434 5436 5437 5439 5440 5440 5442 5444 5448 5450 5453 5456 5458 5461 5465 5468 5472 5476 5478 5481 5483 5485 5488 5491 5493 5496 5498 5500 5503 5506 5509 5512 5515 5518 5521 5523 5525 5528
5422 5421 5420 5420 5422 5424 5425 5425 5426 5428 5429 5429 5430 5432 5435 5438 5440 5442 5446 5449 5452 5455 5459 5463 5466 5469 5473 5475 5477 5479 5482 5485 5486 5488 5491 5493 5496 5499 5502 5505 5507 5508 5511 5514
5422 5419 5418 5418 5418 5418 5417 5416 5416 5417 5417 5417 5418 5420 5423 5426 5427 5428 5432 5433 5436 5442 5447 5450 5453 5457 5460 5463 5466 5469 5471 5472 5474 5476 5478 5480 5483 5486 5489 5492 5494 5495 5497 5500
5423 5418 5416 5416 5414 5413 5411 5411 5410 5409 5411 5407 5408 5408 5409 5411 5415 5415 5417 5419 5423 5428 5432 5436 5440 5444 5447 5450 5454 5457 5459 5462 5463 5465 5467 5468 5470 5473 5476 5478 5480 5482 5485 5488
5425 5420 5417 5412 5410 5408 5407 5405 5402 5400 5402 5401 5399 5399 5399 5399 5400 5404 5403 5405 5408 5412 5416 5421 5426 5430 5434 5437 5441 5444 5447 5449 5451 5454 5456 5458 5459 5461 5464 5466 5468 5470 5473 5477
5424 5420 5417 5413 5409 5407 5403 5400 5397 5395 5397 5392 5391 5390 5390 5390 5388 5391 5392 5392 5393 5397 5400 5404 5410 5415 5419 5423 5427 5430 5434 5436 5440 5443 5445 5446 5448 5450 5452 5454 5456 5459 5462 5465
5425 5420 5416 5413 5409 5407 5402 5398 5394 5392 5389 5387 5385 5383 5381 5380 5378 5377 5378 5379 5380 5382 5385 5388 5394 5400 5403 5408 5413 5417 5421 5423 5428 5430 5433 5435 5437 5439 5441 5442 5445 5448 5451 5453
5426 5421 5415 5411 5407 5403 5398 5396 5392 5388 5386 5383 5380 5377 5374 5372 5369 5366 5364 5361 5364 5367 5371 5375 5380 5385 5388 5393 5400 5404 5405 5412 5415 5418 5421 5423 5426 5429 5430 5432 5434 5437 5439 5441
5423 5418 5413 5409 5404 5399 5394 5390 5386 5383 5380 5378 5373 5370 5366 5363 5360 5356 5351 5347 5345 5348 5355 5362 5367 5372 5375 5380 5386 5390 5393 5398 5403 5406 5410 5412 5415 5417 5418 5420 5422 5425 5427 5429
5419 5413 5409 5406 5401 5397 5390 5384 5380 5377 5372 5370 5366 5363 5359 5355 5352 5346 5342 5337 5334 5335 5341 5346 5352 5358 5363 5369 5374 5378 5382 5386 5390 5394 5397 5400 5403 5406 5407 5408 5410 5414 5416 5418
5414 5408 5404 5399 5395 5389 5385 5378 5374 5370 5366 5362 5359 5356 5352 5348 5345 5341 5336 5333 5331 5332 5333 5336 5339 5345 5350 5356 5362 5366 5370 5374 5379 5383 5385 5389 5392 5395 5396 5398 5400 5403 5405 5408